Wind_Speed
34 34 34 35 35 36 37 37 37 38 38 40 41 41 40 41 42 43 43 43 42 43 43 44 44 43 43 43 43 44 44 44 43 43 43 43 42 42 42 42 42 43 42 42
34 35 35 36 37 37 37 38 38 38 39 41 41 41 41 41 42 43 43 44 44 44 44 44 44 44 43 43 43 44 44 45 45 44 44 44 44 44 43 43 43 44 43 42
34 35 36 36 36 37 37 38 39 39 40 41 42 42 41 41 42 43 43 43 43 43 44 44 44 44 43 43 43 44 46 45 45 45 44 44 44 44 44 45 44 44 44 44
34 35 35 36 36 37 38 38 40 40 40 41 41 43 40 41 41 42 41 41 42 42 43 44 44 43 43 44 43 45 46 45 45 45 44 44 43 44 45 45 45 45 45 45
34 34 34 35 36 37 37 38 40 40 40 41 40 42 40 40 40 40 40 41 41 41 41 42 43 43 43 44 44 44 45 45 46 46 45 45 44 44 44 45 45 46 46 45
34 34 34 35 35 36 37 38 39 40 40 40 39 41 41 39 40 40 41 41 40 41 41 42 42 42 43 44 44 44 45 45 45 45 45 45 44 44 44 44 44 45 46 46
34 34 34 35 35 35 36 37 38 40 39 40 39 40 39 38 38 39 40 40 40 40 40 40 41 42 42 43 43 44 44 44 44 45 45 45 45 44 44 44 44 45 46 46
34 34 34 34 35 35 35 36 37 39 40 40 40 40 38 37 36 38 39 39 38 39 39 39 40 41 41 42 42 43 42 43 43 45 45 45 46 46 44 44 45 46 46 46
35 35 35 35 35 35 35 36 37 39 41 41 41 40 38 36 36 37 37 37 37 37 37 37 39 39 40 40 40 41 42 42 43 44 45 45 46 46 46 45 45 46 46 47
36 37 36 36 36 35 35 36 37 38 40 42 42 40 38 36 36 36 37 37 36 37 37 38 38 39 40 39 40 40 41 41 42 43 44 45 45 46 46 46 46 46 47 48
37 37 37 36 36 35 34 35 37 38 39 41 42 40 39 38 36 36 36 36 36 36 37 38 38 39 39 39 39 39 40 40 41 42 43 44 44 45 46 46 47 46 47 48
36 37 36 36 35 35 35 35 36 37 38 40 42 40 38 37 35 35 35 35 34 36 37 37 37 37 39 39 38 38 38 39 40 41 43 44 44 44 45 46 47 46 47 48
36 36 36 35 35 34 35 35 37 38 38 39 40 39 38 37 36 34 35 34 35 36 37 37 37 37 37 38 37 37 37 38 39 41 42 43 43 45 46 46 46 46 47 48
35 35 35 35 35 35 35 36 36 37 38 38 38 38 36 36 36 35 34 35 36 37 37 37 37 37 37 37 37 36 37 38 40 41 41 42 43 45 46 46 46 47 47 47
34 35 34 35 35 36 36 37 37 37 37 38 37 37 36 36 36 35 35 35 36 36 36 36 37 37 37 37 37 37 37 38 39 40 41 42 43 44 46 46 47 47 48 48
34 35 35 35 36 36 37 37 37 37 36 36 36 36 36 36 37 36 34 35 35 35 34 36 37 37 37 37 37 38 37 38 38 39 41 42 43 43 44 45 46 47 48 49
34 35 35 36 36 38 37 36 36 36 35 35 34 34 35 36 37 36 35 34 34 34 33 34 35 36 36 37 37 37 37 38 38 39 40 40 41 42 43 44 44 46 47 47
33 34 36 36 37 38 36 36 35 35 34 34 33 33 34 34 35 36 35 34 33 33 34 35 35 35 36 37 37 38 38 38 38 38 38 39 39 40 41 42 43 44 45 45
33 33 35 35 36 37 36 35 35 35 34 34 34 33 33 33 34 34 35 33 32 32 32 33 34 34 35 36 36 36 37 38 38 38 37 37 37 38 39 39 40 40 42 43
33 33 33 34 36 36 34 34 33 34 34 33 34 33 33 32 32 31 32 32 31 31 31 32 33 34 34 35 35 35 36 36 36 36 37 36 36 36 36 37 38 39 40 41
33 33 33 34 35 34 33 33 32 33 33 32 32 32 32 32 31 31 31 31 31 31 31 31 32 33 33 33 33 33 34 34 35 35 35 36 36 35 35 35 36 37 38 40
32 33 33 33 33 33 32 32 32 33 33 32 32 32 32 31 30 30 30 30 30 31 31 31 31 31 31 31 31 32 32 32 33 34 34 34 35 35 35 36 37 37 38 39
32 32 32 33 33 33 33 32 32 32 32 32 32 32 32 31 30 30 29 29 29 30 31 31 31 30 30 30 30 30 31 31 31 32 32 32 33 34 35 36 36 36 36 37
32 32 33 33 32 32 32 32 32 31 31 32 31 31 31 30 29 29 29 29 28 29 30 30 30 30 29 29 30 29 28 28 29 30 30 30 31 33 34 35 35 34 35 36
32 32 32 31 31 31 31 31 31 30 30 31 31 31 31 30 30 30 30 29 29 29 29 29 29 29 28 27 28 27 26 25 25 25 26 28 29 29 30 32 32 33 33 34
30 30 30 30 30 30 30 30 30 30 30 30 30 31 31 31 30 29 30 30 29 29 29 29 28 28 27 26 25 24 24 24 24 24 23 25 27 28 28 29 30 31 32 33
Wind_Direction
281 280 280 280 280 279 279 279 279 278 277 276 274 274 272 271 272 271 269 268 267 264 263 263 263 263 261 261 261 260 258 257 258 257 256 254 253 252 251 251 249 249 248 248
280 279 280 280 281 279 279 279 279 279 278 278 277 275 274 273 272 272 271 270 268 265 263 263 263 262 261 261 261 259 259 258 258 257 257 255 254 252 251 251 250 249 248 247
280 280 280 281 281 279 279 279 279 280 279 279 280 278 276 274 273 273 272 270 269 267 264 262 262 262 261 261 261 260 260 258 257 256 256 255 253 251 250 250 250 250 248 247
280 280 281 282 282 280 280 280 280 280 280 282 282 282 279 278 275 274 273 271 269 268 264 262 261 261 261 261 261 260 259 258 257 256 256 255 253 252 251 250 249 249 248 246
282 282 283 283 283 282 282 282 281 281 281 282 284 284 283 280 278 276 275 272 270 268 264 262 261 261 261 262 261 259 258 257 257 256 256 255 254 253 251 250 249 248 247 247
283 283 284 284 285 284 284 284 283 282 283 283 286 287 285 284 281 279 277 275 271 268 265 263 262 261 262 262 261 260 258 257 256 256 255 255 254 252 251 250 248 248 247 246
284 285 286 286 286 285 285 286 286 285 284 286 288 288 289 289 284 281 279 276 272 268 266 263 262 262 262 261 260 260 259 257 256 254 254 253 253 252 251 250 248 248 247 246
285 286 287 288 288 287 286 287 287 287 287 288 289 289 290 290 287 283 281 277 272 268 266 264 262 262 262 261 259 259 258 257 255 254 253 253 253 252 250 250 249 247 247 246
286 287 288 288 288 288 287 287 287 287 287 288 288 289 290 290 287 283 279 275 270 267 266 265 264 261 260 261 259 258 258 257 256 254 253 252 251 251 251 250 249 248 247 245
286 287 288 288 288 287 287 288 289 288 289 290 290 291 292 290 287 283 279 274 269 267 266 266 264 262 262 261 260 259 258 257 257 255 253 252 251 251 250 249 248 248 247 245
287 288 289 289 288 289 288 289 289 289 288 290 291 291 292 292 288 285 280 275 271 268 267 267 265 263 261 261 261 260 259 258 257 255 254 252 251 251 250 249 248 248 248 246
287 288 289 289 289 289 290 290 290 290 289 288 290 291 293 291 287 285 281 277 274 271 270 270 268 266 263 261 261 260 259 259 257 255 254 254 252 252 251 250 249 248 248 247
287 288 290 289 289 290 291 291 290 290 288 289 289 291 292 289 285 283 281 279 277 273 271 271 268 266 264 262 262 262 261 260 259 257 257 255 253 252 251 251 249 248 248 247
286 287 288 290 291 291 291 291 291 290 288 289 291 291 289 287 285 283 282 280 278 275 271 270 267 265 262 262 263 263 263 262 261 259 257 255 254 253 252 251 249 248 248 247
285 286 287 288 290 291 291 292 291 290 288 288 290 290 290 288 286 284 284 282 279 277 272 269 267 264 262 264 266 266 265 264 262 260 258 257 256 255 253 251 250 249 249 248
286 287 287 288 290 291 291 292 291 290 288 288 289 290 289 288 286 284 284 284 281 279 273 269 267 266 264 265 267 267 266 264 262 261 260 259 257 255 254 252 251 250 250 248
287 287 288 289 290 291 291 293 292 290 289 289 290 292 291 289 287 284 283 283 281 278 273 269 269 268 266 267 268 268 267 266 264 263 261 260 258 255 254 253 252 251 251 249
289 288 289 290 289 291 294 293 292 290 289 289 290 291 292 291 290 286 284 283 281 278 275 271 270 269 269 269 270 270 269 268 265 262 261 259 257 255 255 253 252 251 250 249
290 291 291 291 292 292 293 293 292 290 289 290 289 291 292 292 291 288 285 284 282 280 278 274 271 271 270 271 272 271 271 268 265 263 261 260 257 256 254 252 251 250 249 248
291 291 291 292 293 294 295 293 292 291 291 291 291 290 291 291 290 289 285 284 282 281 280 277 273 273 274 275 274 274 272 269 265 262 261 259 257 256 254 252 251 250 250 249
290 290 291 292 293 294 295 294 293 292 293 293 293 292 292 292 291 290 288 285 284 283 284 281 278 275 275 276 276 275 274 270 265 262 261 258 257 256 254 253 252 252 251 250
289 289 290 291 293 295 294 293 293 293 292 293 292 292 292 291 289 289 288 287 286 284 284 284 282 278 277 277 276 275 274 271 267 264 261 258 257 257 254 253 254 254 253 251
288 288 289 290 292 292 292 292 292 293 292 292 292 292 292 290 288 287 287 286 285 285 286 285 284 279 277 278 278 277 276 271 267 264 263 259 258 256 254 253 254 254 254 251
288 288 288 289 290 291 291 291 291 292 292 292 292 291 292 290 288 287 287 287 286 286 287 287 286 284 281 278 277 278 276 273 268 265 262 259 258 257 254 253 254 254 253 253
289 288 288 288 289 289 290 290 291 291 291 291 291 292 291 290 289 288 287 288 287 286 287 288 286 286 285 281 277 276 275 273 270 267 263 259 258 258 256 254 254 253 253 254
288 287 287 288 288 289 290 292 292 291 290 290 291 291 291 290 289 288 288 288 287 286 287 287 286 285 285 283 280 277 274 271 270 269 266 261 260 258 257 254 252 252 253 254
Height
5698 5698 5696 5694 5692 5690 5689 5687 5686 5685 5683 5682 5681 5681 5682 5681 5680 5680 5680 5680 5681 5682 5683 5684 5685 5686 5688 5689 5691 5692 5694 5696 5697 5699 5700 5702 5704 5706 5708 5710 5713 5716 5719 5722
5690 5688 5687 5684 5683 5681 5679 5678 5676 5675 5673 5671 5670 5670 5671 5670 5668 5667 5668 5668 5668 5669 5670 5672 5673 5674 5676 5677 5679 5680 5682 5683 5685 5687 5689 5691 5693 5695 5698 5699 5702 5705 5708 5711
5680 5680 5677 5675 5673 5671 5670 5668 5666 5665 5663 5661 5659 5659 5660 5658 5656 5655 5655 5655 5655 5656 5657 5658 5660 5661 5663 5665 5666 5667 5669 5671 5673 5675 5677 5678 5680 5683 5686 5689 5691 5694 5697 5700
5671 5670 5668 5666 5664 5662 5661 5659 5657 5655 5653 5651 5650 5647 5650 5647 5645 5643 5643 5642 5642 5642 5644 5645 5647 5649 5651 5652 5654 5655 5657 5659 5661 5662 5664 5666 5669 5672 5675 5678 5680 5683 5686 5689
5662 5661 5659 5657 5656 5653 5651 5649 5647 5645 5643 5641 5640 5636 5639 5636 5634 5632 5631 5630 5630 5630 5631 5632 5634 5636 5638 5640 5641 5642 5644 5646 5648 5650 5652 5655 5657 5660 5663 5666 5669 5671 5674 5678
5654 5652 5650 5648 5646 5644 5642 5640 5638 5635 5633 5632 5631 5627 5626 5625 5623 5621 5619 5618 5618 5618 5618 5620 5622 5624 5625 5627 5628 5629 5631 5633 5635 5638 5640 5642 5645 5648 5651 5654 5657 5660 5663 5667
5646 5645 5642 5640 5638 5636 5634 5632 5628 5625 5623 5622 5621 5617 5617 5615 5612 5610 5608 5607 5606 5606 5607 5608 5610 5612 5613 5614 5615 5617 5619 5621 5623 5625 5628 5630 5633 5636 5639 5642 5645 5649 5652 5655
5637 5636 5634 5632 5629 5627 5625 5623 5620 5616 5614 5613 5611 5608 5609 5606 5602 5600 5598 5596 5595 5595 5596 5597 5598 5599 5600 5601 5602 5604 5606 5608 5610 5612 5615 5618 5620 5623 5627 5630 5633 5637 5640 5644
5628 5627 5626 5623 5621 5619 5616 5614 5611 5607 5604 5602 5601 5600 5599 5596 5593 5591 5588 5587 5586 5586 5587 5587 5587 5587 5588 5589 5590 5592 5593 5596 5597 5600 5602 5605 5608 5611 5614 5618 5621 5625 5628 5631
5619 5618 5617 5615 5613 5610 5608 5605 5602 5598 5594 5591 5591 5590 5588 5586 5584 5582 5580 5578 5577 5577 5577 5577 5577 5577 5577 5578 5579 5580 5581 5583 5585 5587 5589 5592 5595 5598 5602 5605 5608 5612 5615 5619
5611 5609 5608 5606 5604 5602 5600 5597 5593 5589 5586 5583 5580 5583 5580 5577 5574 5572 5570 5568 5568 5567 5567 5567 5566 5566 5566 5567 5567 5568 5569 5571 5572 5574 5577 5580 5582 5585 5588 5592 5595 5599 5602 5606
5602 5600 5598 5597 5595 5592 5590 5588 5585 5582 5579 5575 5571 5575 5571 5568 5565 5563 5561 5560 5559 5558 5557 5556 5555 5555 5556 5556 5557 5558 5558 5559 5561 5562 5565 5567 5570 5572 5576 5579 5582 5586 5589 5593
5593 5591 5589 5588 5588 5585 5582 5579 5576 5573 5570 5567 5564 5567 5562 5559 5556 5554 5552 5551 5550 5549 5547 5546 5545 5546 5546 5546 5547 5547 5548 5549 5549 5551 5553 5555 5557 5560 5563 5566 5569 5572 5576 5580
5585 5583 5582 5580 5577 5575 5573 5571 5567 5563 5560 5558 5557 5556 5554 5550 5547 5545 5543 5542 5540 5539 5537 5536 5536 5536 5536 5536 5537 5538 5538 5538 5538 5539 5541 5543 5545 5547 5550 5553 5556 5559 5562 5566
5576 5575 5573 5571 5569 5566 5564 5561 5558 5554 5552 5549 5548 5545 5544 5540 5537 5536 5534 5532 5531 5529 5528 5527 5526 5527 5527 5527 5527 5527 5527 5527 5527 5528 5529 5530 5532 5534 5537 5539 5543 5546 5549 5552
5568 5566 5564 5563 5560 5557 5555 5552 5548 5545 5543 5540 5538 5537 5534 5531 5528 5526 5524 5523 5521 5519 5519 5518 5517 5517 5517 5518 5517 5517 5516 5516 5516 5517 5517 5518 5519 5521 5523 5526 5529 5532 5536 5539
5559 5557 5555 5554 5551 5548 5546 5544 5540 5537 5534 5531 5529 5528 5524 5522 5519 5517 5515 5513 5511 5510 5509 5509 5508 5508 5508 5508 5507 5507 5506 5505 5505 5505 5505 5506 5507 5509 5511 5513 5516 5519 5522 5526
5551 5548 5545 5543 5542 5539 5540 5535 5531 5528 5526 5523 5521 5518 5516 5513 5510 5507 5505 5503 5502 5501 5499 5499 5499 5499 5498 5498 5497 5497 5495 5495 5494 5494 5494 5494 5495 5497 5499 5501 5504 5507 5510 5513
5543 5540 5536 5534 5531 5529 5530 5526 5522 5519 5518 5515 5512 5510 5507 5504 5502 5499 5496 5494 5493 5491 5490 5490 5489 5489 5488 5488 5487 5486 5485 5484 5484 5484 5484 5484 5485 5486 5488 5491 5493 5495 5498 5501
5534 5531 5529 5525 5522 5520 5521 5517 5513 5511 5509 5507 5503 5501 5498 5496 5494 5493 5489 5486 5485 5483 5482 5481 5480 5480 5479 5478 5477 5476 5475 5474 5473 5474 5474 5474 5475 5477 5478 5481 5483 5485 5488 5490
5526 5523 5521 5517 5514 5513 5511 5508 5505 5504 5502 5498 5495 5492 5490 5487 5485 5483 5481 5479 5477 5475 5474 5472 5471 5471 5469 5468 5467 5466 5465 5464 5463 5464 5464 5465 5466 5467 5469 5471 5473 5475 5477 5480
5517 5515 5513 5509 5507 5507 5502 5499 5497 5495 5492 5489 5486 5484 5482 5479 5477 5475 5473 5471 5469 5467 5466 5464 5463 5462 5461 5459 5458 5457 5456 5455 5454 5455 5455 5456 5457 5458 5459 5461 5463 5465 5467 5470
5509 5507 5504 5503 5502 5498 5494 5491 5489 5486 5484 5481 5479 5476 5474 5471 5469 5467 5465 5464 5462 5460 5458 5456 5455 5454 5452 5451 5449 5448 5447 5446 5446 5446 5446 5447 5447 5448 5450 5452 5454 5455 5457 5459
5501 5498 5496 5494 5492 5489 5486 5483 5481 5478 5475 5473 5470 5468 5466 5463 5461 5459 5458 5456 5454 5453 5451 5449 5447 5446 5444 5443 5441 5440 5438 5438 5437 5437 5438 5438 5439 5440 5441 5442 5444 5446 5448 5450
5492 5489 5487 5485 5484 5481 5478 5475 5473 5470 5467 5465 5463 5460 5458 5456 5454 5451 5449 5448 5446 5445 5443 5442 5440 5438 5437 5435 5434 5432 5431 5430 5430 5430 5430 5430 5431 5432 5432 5433 5435 5437 5439 5441
5484 5481 5479 5477 5476 5473 5471 5468 5465 5462 5460 5457 5455 5452 5450 5448 5446 5444 5442 5440 5438 5437 5436 5434 5433 5431 5430 5428 5427 5425 5424 5424 5423 5423 5423 5423 5423 5424 5425 5426 5427 5428 5431 5432